TimeEDT,TemperatureF,Dew PointF,Humidity,Sea Level PressureIn,VisibilityMPH,Wind Direction,Wind SpeedMPH,Gust SpeedMPH,PrecipitationIn,Events,Conditions,WindDirDegrees,DateUTC
12:53 AM,35.1,28.9,78,30.14,10.0,West,6.9,-,0.00,,Overcast,270,2013-03-27 04:53:00
1:10 AM,35.6,28.4,75,30.11,10.0,West,5.8,-,N/A,,Overcast,280,2013-03-27 05:10:00
1:53 AM,34.0,28.9,82,30.14,8.0,West,4.6,-,0.00,Snow,Light Snow,280,2013-03-27 05:53:00
2:04 AM,33.8,28.4,81,30.11,5.0,WNW,9.2,-,0.00,Snow,Light Snow,290,2013-03-27 06:04:00
2:12 AM,33.8,28.4,81,30.11,5.0,WNW,6.9,-,0.00,Snow,Light Snow,290,2013-03-27 06:12:00
2:35 AM,33.8,28.4,81,30.11,7.0,West,4.6,-,0.00,Snow,Light Snow,280,2013-03-27 06:35:00
2:53 AM,34.0,28.9,82,30.13,10.0,West,5.8,-,0.00,,Overcast,280,2013-03-27 06:53:00
3:53 AM,34.0,28.0,79,30.12,10.0,West,3.5,-,N/A,,Overcast,280,2013-03-27 07:53:00
4:53 AM,35.1,28.0,76,30.13,10.0,West,6.9,-,N/A,,Overcast,270,2013-03-27 08:53:00
5:53 AM,35.1,28.0,76,30.14,10.0,WNW,5.8,-,N/A,,Overcast,290,2013-03-27 09:53:00
6:53 AM,34.0,28.0,79,30.15,10.0,WNW,6.9,-,0.00,,Overcast,290,2013-03-27 10:53:00
7:53 AM,34.0,28.0,79,30.17,7.0,West,8.1,-,N/A,,Overcast,280,2013-03-27 11:53:00
7:58 AM,33.8,28.4,81,30.15,2.5,WNW,5.8,-,0.00,Snow,Light Snow,290,2013-03-27 11:58:00
8:12 AM,33.8,28.4,81,30.15,8.0,WNW,5.8,-,0.00,,Overcast,290,2013-03-27 12:12:00
8:53 AM,35.1,28.0,76,30.19,10.0,West,5.8,-,0.00,,Overcast,280,2013-03-27 12:53:00
9:29 AM,35.6,28.4,75,30.17,10.0,WNW,9.2,-,N/A,,Overcast,290,2013-03-27 13:29:00
9:53 AM,37.0,28.0,70,30.19,10.0,WNW,6.9,-,N/A,,Mostly Cloudy,300,2013-03-27 13:53:00
10:53 AM,39.9,27.0,60,30.19,10.0,WNW,9.2,18.4,N/A,,Mostly Cloudy,300,2013-03-27 14:53:00
11:53 AM,39.9,23.0,51,30.20,10.0,West,17.3,26.5,N/A,,Mostly Cloudy,280,2013-03-27 15:53:00
12:53 PM,41.0,23.0,49,30.20,10.0,WNW,15.0,21.9,N/A,,Mostly Cloudy,300,2013-03-27 16:53:00
1:53 PM,43.0,23.0,45,30.19,10.0,WNW,9.2,19.6,N/A,,Mostly Cloudy,300,2013-03-27 17:53:00
2:53 PM,42.1,21.9,45,30.19,10.0,WNW,13.8,21.9,N/A,,Overcast,300,2013-03-27 18:53:00
3:53 PM,42.1,23.0,47,30.18,10.0,NW,12.7,18.4,N/A,,Overcast,310,2013-03-27 19:53:00
4:53 PM,42.1,23.0,47,30.18,10.0,WNW,9.2,-,N/A,,Overcast,290,2013-03-27 20:53:00
5:53 PM,42.1,23.0,47,30.19,10.0,West,12.7,21.9,N/A,,Overcast,280,2013-03-27 21:53:00
6:53 PM,42.1,24.1,49,30.20,10.0,West,11.5,16.1,N/A,,Overcast,280,2013-03-27 22:53:00
7:53 PM,39.9,26.1,58,30.20,10.0,West,8.1,-,N/A,,Overcast,270,2013-03-27 23:53:00
8:53 PM,39.0,26.1,60,30.21,10.0,West,6.9,-,N/A,,Overcast,270,2013-03-28 00:53:00
9:53 PM,39.0,26.1,60,30.22,10.0,WNW,5.8,-,N/A,,Overcast,290,2013-03-28 01:53:00
10:53 PM,37.9,26.1,62,30.22,10.0,Variable,6.9,-,N/A,,Overcast,0,2013-03-28 02:53:00
11:53 PM,37.9,26.1,62,30.22,10.0,West,8.1,-,N/A,,Overcast,270,2013-03-28 03:53:00